Terminal Aerodrome Forecast
Issued by NWS Charleston, WV

Current Version | Previous Version | Graphics & Text | Print | Product List | Glossary On
Versions: 1 2 3 4 5 6 7 8 9 10 11 12 13 14 15 16 17 18 19 20 21
000
FTUS41 KRLX 150200 AAA
TAFPKB
TAF AMD
KPKB 150259Z 1503/1524 22004KT P6SM OVC028
     FM150900 00000KT 4SM BR OVC028
     FM151300 00000KT P6SM OVC030
     FM152000 VRB03KT P6SM SCT030=

USA.gov is the U.S. government's official web portal to all federal, state and local government web resources and services.